Danville, IL

8:43 PM CST on February 25, 2017 (GMT -0600)
Vermilion County

Weather History for KDNV - August, 2013

Change the Weather History Date:

Friday, August 16, 2013

  Actual Average (KCMI) Record (KCMI)
Temperature  
Mean Temperature 68 °F -  
Max Temperature 82 °F 79 °F 90 °F (1997)
Min Temperature 55 °F 59 °F 48 °F (2004)
Cooling Degree Days 4    
Growing Degree Days 18 (Base 50)    
Moisture  
Dew Point 51 °F    
Average Humidity 61    
Maximum Humidity 87    
Minimum Humidity 33    
Precipitation  
Precipitation 0.00 in - - ()
Sea Level Pressure  
Sea Level Pressure 30.14 in    
Wind  
Wind Speed 2 mph (NE)    
Max Wind Speed 9 mph    
Max Gust Speed -    
Visibility 8 miles    
Events      
Averages and records for this station are not official NWS values.
T = Trace of Precipitation, MM = Missing Value Source: NWS Daily Summary

Daily Weather History Graph

Daily Weather History Graph

Search for Another Location

Airport or City:

Trip Planner

Search our weather history database for the weather conditions in past years. The results will help you decide how hot, cold, wet, or windy it might be!

Date:

Astronomy

Aug. 16, 2013 Rise Set
Actual Time 6:02 AM CDT 7:45 PM CDT
Civil Twilight 5:33 AM CDT 8:14 PM CDT
Nautical Twilight 4:58 AM CDT 8:49 PM CDT
Astronomical Twilight 4:21 AM CDT 9:26 PM CDT
Moon 4:04 PM CDT (8/16) 1:05 AM CDT (8/16)
Length of Visible Light 14h 40m
Length of Day
13h 42m
Waxing Gibbous, 75% of the Moon is Illuminated
Aug 16
Waxing Gibbous
Aug 20
Full
Aug 28
Last Quarter
Sep 5
New
Sep 12
First Quarter

Hourly Weather History & Observations

Time (CDT) Temp. Heat Index Dew Point Humidity Pressure Visibility Wind Dir Wind Speed Gust Speed Precip Events Conditions
12:15 AM 56.5 °F - 49.1 °F 76% 30.13 in 7.0 mi Calm Calm - N/A   Clear
12:55 AM 56.3 °F - 49.8 °F 79% 30.13 in 7.0 mi Calm Calm - N/A   Clear
1:15 AM 55.8 °F - 48.2 °F 76% 30.12 in 7.0 mi Calm Calm - N/A   Clear
1:35 AM 55.9 °F - 46.8 °F 71% 30.12 in 7.0 mi Calm Calm - N/A   Clear
1:55 AM 56.3 °F - 46.2 °F 69% 30.12 in 10.0 mi Calm Calm - N/A   Clear
2:15 AM 56.3 °F - 46.9 °F 71% 30.11 in 7.0 mi Calm Calm - N/A   Clear
2:35 AM 56.3 °F - 48.0 °F 74% 30.10 in 7.0 mi Calm Calm - N/A   Clear
2:55 AM 56.3 °F - 49.1 °F 77% 30.11 in 10.0 mi Calm Calm - N/A   Clear
3:15 AM 56.7 °F - 51.1 °F 82% 30.11 in 7.0 mi Calm Calm - N/A   Mostly Cloudy
3:35 AM 57.2 °F - 51.8 °F 82% 30.11 in 7.0 mi Calm Calm - N/A   Scattered Clouds
3:55 AM 56.7 °F - 50.9 °F 81% 30.12 in 7.0 mi Calm Calm - N/A   Clear
4:15 AM 56.3 °F - 51.3 °F 83% 30.12 in 7.0 mi North 3.5 mph - N/A   Clear
4:35 AM 56.3 °F - 51.6 °F 84% 30.12 in 7.0 mi North 4.6 mph - N/A   Clear
4:55 AM 56.3 °F - 52.3 °F 87% 30.11 in 7.0 mi North 4.6 mph - N/A   Clear
5:15 AM 56.3 °F - 52.0 °F 85% 30.12 in 7.0 mi North 3.5 mph - N/A   Clear
5:35 AM 55.9 °F - 51.8 °F 86% 30.13 in 7.0 mi Calm Calm - N/A   Clear
5:55 AM 55.6 °F - 51.1 °F 85% 30.13 in 7.0 mi Calm Calm - N/A   Clear
6:15 AM 55.4 °F - 50.9 °F 85% 30.13 in 7.0 mi Calm Calm - N/A   Clear
6:35 AM 55.6 °F - 51.3 °F 85% 30.14 in 7.0 mi NNE 3.5 mph - N/A   Clear
6:55 AM 56.1 °F - 51.8 °F 85% 30.14 in 7.0 mi Calm Calm - N/A   Clear
7:15 AM 56.7 °F - 52.2 °F 85% 30.14 in 7.0 mi Calm Calm - N/A   Clear
7:35 AM 57.6 °F - 52.7 °F 84% 30.14 in 7.0 mi Calm Calm - N/A   Clear
7:55 AM 59.0 °F - 52.5 °F 79% 30.15 in 7.0 mi Calm Calm - N/A   Clear
8:15 AM 61.2 °F - 53.1 °F 75% 30.15 in 7.0 mi Calm Calm - N/A   Clear
8:35 AM 63.0 °F - 49.8 °F 62% 30.15 in 7.0 mi Calm Calm - N/A   Clear
8:55 AM 66.7 °F - 52.0 °F 59% 30.15 in 5.0 mi Calm Calm - N/A   Haze
9:15 AM 70.0 °F - 55.9 °F 61% 30.15 in 5.0 mi ENE 3.5 mph - N/A   Haze
9:35 AM 72.1 °F - 57.7 °F 60% 30.15 in 7.0 mi ENE 4.6 mph - N/A   Clear
9:55 AM 73.0 °F - 59.4 °F 62% 30.15 in 5.0 mi NE 3.5 mph - N/A   Haze
10:15 AM 75.2 °F - 58.1 °F 55% 30.15 in 5.0 mi NE 4.6 mph - N/A   Haze
10:35 AM 73.4 °F - 56.7 °F 56% 30.15 in 5.0 mi NE 3.5 mph - N/A   Haze
10:55 AM 72.9 °F - 55.8 °F 55% 30.15 in 7.0 mi NNE 4.6 mph - N/A   Clear
11:15 AM 73.6 °F - 55.9 °F 54% 30.16 in 5.0 mi NE 4.6 mph - N/A   Haze
11:35 AM 75.4 °F - 57.9 °F 54% 30.16 in 7.0 mi NNE 5.8 mph - N/A   Clear
11:55 AM 79.5 °F - 60.8 °F 53% 30.15 in 7.0 mi ENE 4.6 mph - N/A   Clear
12:15 PM 77.5 °F - 54.3 °F 44% 30.15 in 7.0 mi ENE 6.9 mph - N/A   Clear
12:35 PM 77.2 °F - 56.3 °F 48% 30.15 in 7.0 mi NE 6.9 mph - N/A   Scattered Clouds
12:55 PM 77.4 °F - 54.5 °F 45% 30.15 in 7.0 mi ENE 4.6 mph - N/A   Scattered Clouds
1:15 PM 78.4 °F - 56.8 °F 47% 30.14 in 7.0 mi ENE 3.5 mph - N/A   Clear
1:35 PM 78.3 °F - 52.5 °F 41% 30.14 in 5.0 mi ENE 8.1 mph - N/A   Haze
1:55 PM 79.2 °F - 55.6 °F 44% 30.14 in 7.0 mi ENE 6.9 mph - N/A   Clear
2:15 PM 82.6 °F 81.6 °F 54.0 °F 37% 30.14 in 7.0 mi East 9.2 mph - N/A   Clear
2:35 PM 80.4 °F - 49.1 °F 33% 30.13 in 10.0 mi NE 8.1 mph - N/A   Clear
2:55 PM 78.6 °F - 49.1 °F 35% 30.13 in 10.0 mi ENE 9.2 mph - N/A   Clear
3:15 PM 80.4 °F 80.1 °F 53.1 °F 39% 30.13 in 10.0 mi ENE 8.1 mph - N/A   Clear
3:35 PM 79.9 °F - 50.2 °F 35% 30.13 in 10.0 mi ENE 5.8 mph - N/A   Clear
3:55 PM 77.9 °F - 48.7 °F 36% 30.13 in 10.0 mi ENE 3.5 mph - N/A   Clear
4:15 PM 77.7 °F - 49.1 °F 36% 30.13 in 10.0 mi ENE 5.8 mph - N/A   Clear
4:35 PM 77.0 °F - 49.3 °F 38% 30.13 in 10.0 mi ENE 4.6 mph - N/A   Clear
4:55 PM 78.8 °F - 51.3 °F 38% 30.13 in 10.0 mi NE 8.1 mph - N/A   Clear
5:15 PM 76.1 °F - 48.4 °F 38% 30.13 in 10.0 mi East 3.5 mph - N/A   Clear
5:35 PM 75.2 °F - 48.7 °F 39% 30.13 in 10.0 mi Calm Calm - N/A   Clear
5:55 PM 75.2 °F - 48.6 °F 39% 30.13 in 10.0 mi East 4.6 mph - N/A   Clear
6:15 PM 74.8 °F - 48.2 °F 39% 30.13 in 7.0 mi East 3.5 mph - N/A   Clear
6:35 PM 73.0 °F - 49.5 °F 43% 30.13 in 10.0 mi Calm Calm - N/A   Clear
6:55 PM 71.6 °F - 51.1 °F 48% 30.13 in 10.0 mi ESE 3.5 mph - N/A   Clear
7:15 PM 68.9 °F - 50.2 °F 51% 30.13 in 10.0 mi Calm Calm - N/A   Clear
7:35 PM 66.9 °F - 49.6 °F 54% 30.14 in 10.0 mi Calm Calm - N/A   Clear
7:55 PM 65.5 °F - 49.5 °F 56% 30.14 in 10.0 mi Calm Calm - N/A   Clear
8:15 PM 64.4 °F - 49.6 °F 59% 30.14 in 10.0 mi Calm Calm - N/A   Clear
8:35 PM 62.8 °F - 49.6 °F 62% 30.15 in 10.0 mi Calm Calm - N/A   Clear
8:55 PM 61.9 °F - 48.6 °F 62% 30.15 in 10.0 mi Calm Calm - N/A   Clear
9:15 PM 61.7 °F - 48.9 °F 63% 30.16 in 10.0 mi ENE 3.5 mph - N/A   Clear
9:35 PM 61.0 °F - 45.9 °F 58% 30.15 in 7.0 mi ENE 3.5 mph - N/A   Clear
9:55 PM 60.4 °F - 43.2 °F 53% 30.16 in 7.0 mi ENE 3.5 mph - N/A   Clear
10:15 PM 59.4 °F - 43.3 °F 55% 30.16 in 7.0 mi ENE 3.5 mph - N/A   Clear
10:35 PM 57.9 °F - 45.5 °F 63% 30.16 in 7.0 mi Calm Calm - N/A   Clear
10:55 PM 56.3 °F - 46.6 °F 70% 30.16 in 7.0 mi NE 3.5 mph - N/A   Clear
11:15 PM 56.5 °F - 48.6 °F 75% 30.16 in 7.0 mi NE 4.6 mph - N/A   Clear
11:35 PM 56.8 °F - 50.7 °F 80% 30.16 in 7.0 mi NE 3.5 mph - N/A   Clear
11:55 PM 55.9 °F - 47.8 °F 74% 30.16 in 10.0 mi ENE 3.5 mph - N/A   Clear